[ hide orbit diagram ]
For accurate long-term ephemerides, please instead use our Horizons system.This orbit viewer was implemented using two-body methods, and hence should not be used for determining accurate long-term trajectories (over several years or decades) or planetary encounter circumstances.
Orbital Elements at Epoch 2459200.5 (2020-Dec-17.0) TDB
Reference: JPL 23 (heliocentric ecliptic J2000)
Element | Value | Uncertainty (1-sigma) | Units |
e | .1029457368624022 | 2.9924e-08 | |
a | 2.317180642408825 | 7.7469e-09 | au |
q | 2.078636773732754 | 6.8538e-08 | au |
i | 6.54611823839059 | 4.5092e-06 | deg |
node | 210.7843743088366 | 3.0533e-05 | deg |
peri | 72.15398285890281 | 3.911e-05 | deg |
M | 202.0966632345346 | 2.5507e-05 | deg |
tp | 2459765.602295235929 (2022-Jul-05.10229524) | 9.2292e-05 | TDB |
period | 1288.363060921886 3.53 | 6.461e-06 1.769e-08 | d yr |
n | .2794243415690625 | 1.4013e-09 | deg/d |
Q | 2.555724511084896 | 8.5444e-09 | au |
|
| | Orbit Determination Parameters
Additional Information
|
[ show covariance matrix ]
Physical Parameter Table
Parameter |
Symbol |
Value |
Units |
Sigma |
Reference |
Notes |
absolute magnitude |
H |
15.45 |
|
n/a |
E2020-QM5 |
|
|
14525 (1997 GV35) Discovered 1997-Apr-06 by LINEAR at Socorro |
Reference: 20000418/Numbers.arc | Last Updated: 2004-04-19 |
|
|